STARLINK-3270 (50199 NORAD) Tracking and Keplerian Element Data
This shows tracking and keplerian element data for the satellite.
Feedback or suggestion? Click here.
Element | Value |
Catalog | 50199 |
Name | STARLINK-3270 |
Epoch Orbit | 130 |
Epoch Day | 140.58334491 |
Epoch Year | 2022 |
RAAN | 355.057 |
Inclination | 53.2154 |
Eccentricity | 0.0001922 |
Argument of Perigee | 43.7503 |
Mean Anonmoly | 197.7512 |
Mean Motion | 15.08851476 |
Decay Rate | -4.731E-05 |
L1 | 1 50199U 21125AV 22140.58334491 -.00004731 00000+0 -27925-3 0 9995 |
L2 | 2 50199 53.2154 355.0570 0001922 43.7503 197.7512 15.08851476 1308 |
Live tracking and technical data element details for STARLINK-3270 (NORAD 50199). STARLINK-3270 can be tracked NOW for your location showing map with azimuth and elevation plus other details from your city location.
Track the satellite on the map from your city or location and see movement details for azimuth, elevation, latitude, longitude, range, height, and movement on the map or in text.
IsCatalogInMostPopularTable: catalog: 50199, numindb: 22
Update: records affected: 1
GetName: 50199 STARLINK-3270
Hit Count: updated at: Sun, 22 May 2022 05:18:43 GMT